When you browse on this site, cookies collect data to enhance your experience and personalize the content and advertising you see.
Visit our Privacy Policy to learn more. By continuing to use the site, you agree to this use of cookies and data.
  • In Romania
  • List of Countries
  • For 7 days
  • Water Temperature
  • Satellite Maps
  • Weather Map
  • Weather Widgets
  • user-avatar
    Login

    Hourly Weather Hanoi

    Today, 25 March, Monday

    Time Temperature Precipitation Wind Pressure Humidity
    00:00 +21°C° 0 mm 1 mps 761 mmHg 71%
    01:00 +20°C° 0 mm 1 mps 761 mmHg 71%
    02:00 +20°C° 0.1 mm 1 mps 761 mmHg 71%
    03:00 +19°C° 0.1 mm 2 mps 761 mmHg 70%
    04:00 +19°C° 0.1 mm 2 mps 761 mmHg 70%
    05:00 +19°C° 0 mm 2 mps 761 mmHg 69%
    06:00 +19°C° 0 mm 2 mps 762 mmHg 69%
    07:00 +17°C° 0 mm 3 mps 762 mmHg 59%
    08:00 +18°C° 0 mm 2 mps 763 mmHg 60%
    09:00 +18°C° 0 mm 2 mps 763 mmHg 60%
    10:00 +19°C° 0 mm 2 mps 763 mmHg 61%
    11:00 +21°C° 0 mm 2 mps 762 mmHg 59%
    12:00 +24°C° 0 mm 2 mps 762 mmHg 57%
    13:00 +25°C° 0 mm 2 mps 761 mmHg 55%
    14:00 +26°C° 0 mm 2 mps 760 mmHg 55%
    15:00 +27°C° 0 mm 3 mps 760 mmHg 55%
    16:00 +28°C° 0 mm 3 mps 759 mmHg 56%
    17:00 +27°C° 0 mm 3 mps 759 mmHg 61%
    18:00 +25°C° 0 mm 3 mps 759 mmHg 67%
    19:00 +23°C° 0 mm 4 mps 759 mmHg 72%
    20:00 +22°C° 0 mm 4 mps 760 mmHg 76%
    21:00 +22°C° 0 mm 4 mps 760 mmHg 79%
    22:00 +21°C° 0 mm 4 mps 761 mmHg 82%
    23:00 +21°C° 0 mm 3 mps 761 mmHg 84%

    Tomorrow, 26 March, Tuesday

    Time Temperature Precipitation Wind Pressure Humidity
    00:00 +21°C° 0 mm 3 mps 761 mmHg 86%
    01:00 +21°C° 0 mm 2 mps 761 mmHg 87%
    02:00 +21°C° 0 mm 2 mps 761 mmHg 87%
    03:00 +21°C° 0 mm 2 mps 760 mmHg 87%
    04:00 +22°C° 0 mm 1 mps 760 mmHg 87%
    05:00 +22°C° 0 mm 1 mps 760 mmHg 87%
    06:00 +22°C° 0 mm 1 mps 761 mmHg 87%
    07:00 +22°C° 0 mm 1 mps 761 mmHg 88%
    08:00 +23°C° 0 mm 1 mps 761 mmHg 86%
    09:00 +23°C° 0 mm 1 mps 762 mmHg 85%
    10:00 +24°C° 0 mm 1 mps 762 mmHg 84%
    11:00 +24°C° 0 mm 1 mps 762 mmHg 82%
    12:00 +25°C° 0 mm 2 mps 761 mmHg 81%
    13:00 +25°C° 0 mm 2 mps 761 mmHg 79%
    14:00 +27°C° 0 mm 2 mps 760 mmHg 75%
    15:00 +28°C° 0 mm 3 mps 759 mmHg 70%
    16:00 +29°C° 0 mm 4 mps 759 mmHg 65%
    17:00 +29°C° 0 mm 4 mps 759 mmHg 69%
    18:00 +28°C° 0 mm 4 mps 759 mmHg 73%
    19:00 +27°C° 0 mm 4 mps 760 mmHg 77%
    20:00 +26°C° 0 mm 3 mps 760 mmHg 81%
    21:00 +25°C° 0 mm 3 mps 761 mmHg 84%
    22:00 +24°C° 0 mm 3 mps 762 mmHg 88%
    23:00 +24°C° 0 mm 3 mps 761 mmHg 90%

    Day after tomorrow, 27 March, Wednesday

    Time Temperature Precipitation Wind Pressure Humidity
    00:00 +24°C° 0 mm 2 mps 761 mmHg 93%
    01:00 +23°C° 0 mm 2 mps 761 mmHg 95%
    02:00 +24°C° 0 mm 2 mps 760 mmHg 95%
    03:00 +24°C° 0 mm 1 mps 760 mmHg 95%
    04:00 +24°C° 0 mm 1 mps 759 mmHg 95%
    05:00 +24°C° 0 mm 1 mps 760 mmHg 94%
    06:00 +24°C° 0 mm 1 mps 760 mmHg 93%
    07:00 +24°C° 0 mm 1 mps 761 mmHg 92%
    08:00 +25°C° 0.1 mm 1 mps 761 mmHg 89%
    09:00 +26°C° 0.1 mm 2 mps 761 mmHg 85%
    10:00 +27°C° 0.1 mm 3 mps 761 mmHg 81%
    11:00 +28°C° 0.1 mm 3 mps 761 mmHg 78%
    12:00 +29°C° 0.1 mm 4 mps 760 mmHg 74%
    13:00 +29°C° 0.1 mm 4 mps 759 mmHg 70%
    14:00 +30°C° 0 mm 4 mps 759 mmHg 69%
    15:00 +30°C° 0 mm 4 mps 758 mmHg 67%
    16:00 +30°C° 0 mm 5 mps 757 mmHg 65%
    17:00 +29°C° 0 mm 5 mps 758 mmHg 69%
    18:00 +28°C° 0 mm 4 mps 758 mmHg 73%
    19:00 +27°C° 0 mm 4 mps 758 mmHg 78%
    20:00 +27°C° 0 mm 4 mps 759 mmHg 80%
    21:00 +26°C° 0 mm 4 mps 759 mmHg 83%
    22:00 +26°C° 0 mm 4 mps 760 mmHg 86%
    23:00 +26°C° 0 mm 3 mps 759 mmHg 87%

    28 March, Thursday

    Time Temperature Precipitation Wind Pressure Humidity
    00:00 +25°C° 0 mm 3 mps 759 mmHg 88%
    01:00 +25°C° 0 mm 3 mps 758 mmHg 89%
    02:00 +25°C° 0 mm 3 mps 758 mmHg 90%
    03:00 +25°C° 0 mm 3 mps 757 mmHg 92%
    04:00 +25°C° 0 mm 3 mps 757 mmHg 93%
    05:00 +25°C° 0 mm 3 mps 757 mmHg 92%
    06:00 +25°C° 0 mm 2 mps 758 mmHg 92%
    07:00 +25°C° 0 mm 2 mps 758 mmHg 91%
    08:00 +26°C° 0 mm 2 mps 758 mmHg 86%
    09:00 +27°C° 0 mm 3 mps 759 mmHg 82%
    10:00 +28°C° 0 mm 3 mps 759 mmHg 77%
    11:00 +29°C° 0 mm 3 mps 758 mmHg 73%
    12:00 +30°C° 0 mm 3 mps 757 mmHg 70%
    13:00 +31°C° 0 mm 3 mps 756 mmHg 66%
    14:00 +32°C° 0 mm 4 mps 755 mmHg 67%
    15:00 +32°C° 0 mm 4 mps 755 mmHg 67%
    16:00 +32°C° 0 mm 4 mps 754 mmHg 67%
    17:00 +30°C° 0 mm 4 mps 754 mmHg 72%
    18:00 +29°C° 0 mm 4 mps 755 mmHg 77%
    19:00 +27°C° 0 mm 4 mps 755 mmHg 81%
    20:00 +27°C° 0 mm 4 mps 756 mmHg 84%
    21:00 +26°C° 0 mm 4 mps 756 mmHg 86%
    22:00 +26°C° 0 mm 3 mps 756 mmHg 89%
    23:00 +26°C° 0 mm 3 mps 756 mmHg 89%

    29 March, Friday

    Time Temperature Precipitation Wind Pressure Humidity
    00:00 +26°C° 0 mm 3 mps 756 mmHg 88%
    01:00 +26°C° 0 mm 3 mps 755 mmHg 88%
    02:00 +26°C° 0 mm 3 mps 755 mmHg 88%
    03:00 +26°C° 0 mm 3 mps 754 mmHg 88%
    04:00 +26°C° 0 mm 2 mps 754 mmHg 88%
    05:00 +26°C° 0 mm 2 mps 754 mmHg 88%
    06:00 +26°C° 0 mm 2 mps 755 mmHg 89%
    07:00 +26°C° 0 mm 1 mps 755 mmHg 89%
    08:00 +27°C° 0 mm 2 mps 756 mmHg 85%
    09:00 +28°C° 0 mm 2 mps 756 mmHg 81%
    10:00 +29°C° 0 mm 2 mps 756 mmHg 77%
    11:00 +30°C° 0 mm 3 mps 756 mmHg 74%
    12:00 +31°C° 0 mm 3 mps 755 mmHg 71%
    13:00 +31°C° 0 mm 3 mps 754 mmHg 68%
    14:00 +32°C° 0 mm 4 mps 754 mmHg 68%
    15:00 +33°C° 0 mm 5 mps 753 mmHg 68%
    16:00 +33°C° 0 mm 5 mps 753 mmHg 68%
    17:00 +32°C° 0 mm 5 mps 754 mmHg 73%
    18:00 +29°C° 0 mm 5 mps 754 mmHg 79%
    19:00 +28°C° 0 mm 4 mps 755 mmHg 84%
    20:00 +28°C° 0.1 mm 4 mps 755 mmHg 85%
    21:00 +27°C° 0.1 mm 4 mps 756 mmHg 85%
    22:00 +27°C° 0.1 mm 3 mps 757 mmHg 86%
    23:00 +27°C° 0.1 mm 3 mps 756 mmHg 86%

    30 March, Saturday

    Time Temperature Precipitation Wind Pressure Humidity
    00:00 +27°C° 0.1 mm 3 mps 756 mmHg 87%
    01:00 +26°C° 0.1 mm 3 mps 756 mmHg 87%
    02:00 +26°C° 0 mm 3 mps 756 mmHg 88%
    03:00 +26°C° 0 mm 2 mps 756 mmHg 89%
    04:00 +26°C° 0 mm 2 mps 756 mmHg 89%
    05:00 +26°C° 0.4 mm 2 mps 757 mmHg 89%
    06:00 +26°C° 0.4 mm 2 mps 758 mmHg 89%
    07:00 +26°C° 0.4 mm 2 mps 758 mmHg 89%
    08:00 +26°C° 0.4 mm 2 mps 759 mmHg 88%
    09:00 +26°C° 0.4 mm 1 mps 759 mmHg 87%
    10:00 +26°C° 0.4 mm 1 mps 759 mmHg 87%
    11:00 +27°C° 0.1 mm 1 mps 759 mmHg 80%
    12:00 +28°C° 0.1 mm 1 mps 759 mmHg 74%
    13:00 +29°C° 0.1 mm 2 mps 758 mmHg 68%
    14:00 +30°C° 0.4 mm 2 mps 758 mmHg 64%
    15:00 +31°C° 0.4 mm 3 mps 758 mmHg 61%
    16:00 +33°C° 0.4 mm 4 mps 757 mmHg 57%
    17:00 +31°C° 0.9 mm 3 mps 758 mmHg 63%
    18:00 +29°C° 0.9 mm 3 mps 759 mmHg 69%
    19:00 +28°C° 0.9 mm 2 mps 759 mmHg 75%
    20:00 +28°C° 0.8 mm 2 mps 760 mmHg 76%
    21:00 +27°C° 0.8 mm 2 mps 760 mmHg 77%
    22:00 +27°C° 0.8 mm 2 mps 761 mmHg 79%
    23:00 +26°C° 1.3 mm 2 mps 761 mmHg 79%
    Show more